Weather History for Rockingham, NC

Change the Weather History Date:

Monday, December 2, 2013

  Actual Average (KHFF) Record (KHFF)
Temperature  
Mean Temperature 50 °F -  
Max Temperature 61 °F 60 °F 75 °F (1998)
Min Temperature 41 °F 35 °F 15 °F (1999)
Degree Days  
Heating Degree Days 15    
Moisture  
Dew Point 43 °F    
Average Humidity 80    
Maximum Humidity 98    
Minimum Humidity 54    
Precipitation  
Precipitation 0.00 in - - ()
Sea Level Pressure  
Sea Level Pressure 29.90 in    
Wind  
Wind Speed 1 mph (WNW)    
Max Wind Speed 7 mph    
Max Gust Speed -    
Visibility 10 miles    
Events      
Averages and records for this station are not official NWS values.
T = Trace of Precipitation, MM = Missing Value Source: NWS Daily Summary

Daily Weather History Graph

Daily Weather History Graph

Search for Another Location

Airport:

Trip Planner

Search our weather history database for the weather conditions in past years. The results will help you decide how hot, cold, wet, or windy it might be!

Date:

Astronomy

Dec. 02, 2013 Rise Set
Actual Time 7:09 AM EST 5:07 PM EST
Civil Twilight 6:41 AM EST 5:35 PM EST
Nautical Twilight 6:10 AM EST 6:06 PM EST
Astronomical Twilight 5:39 AM EST 6:37 PM EST
Moon 6:34 AM EST (12/2) 5:07 PM EST (12/2)
Length of Visible Light 10h 53m
Length of Day
9h 58m
Waning Crescent, 0% of the Moon is Illuminated
Dec 2
Waning Crescent
Dec 2
New
Dec 9
First Quarter
Dec 17
Full
Dec 25
Last Quarter

Hourly Weather History & Observations

Time (EST) Temp. Dew Point Humidity Pressure Visibility Wind Dir Wind Speed Gust Speed Precip Events Conditions
12:15 AM 44.4 °F 42.4 °F 93% 30.02 in 10.0 mi Calm Calm - N/A   Mostly Cloudy
12:35 AM 44.4 °F 42.3 °F 92% 30.01 in 10.0 mi Calm Calm - N/A   Mostly Cloudy
12:55 AM 42.3 °F 40.5 °F 93% 30.00 in 7.0 mi Calm Calm - N/A   Mostly Cloudy
1:15 AM 42.3 °F 41.2 °F 96% 29.99 in 7.0 mi Calm Calm - N/A   Scattered Clouds
1:35 AM 43.0 °F 41.9 °F 96% 29.98 in 7.0 mi Calm Calm - N/A   Scattered Clouds
1:55 AM 43.3 °F 42.1 °F 95% 29.97 in 7.0 mi Calm Calm - N/A   Scattered Clouds
2:15 AM 41.4 °F 40.5 °F 97% 29.97 in 7.0 mi Calm Calm - N/A   Clear
2:35 AM 41.5 °F 41.0 °F 98% 29.97 in 7.0 mi Calm Calm - N/A   Scattered Clouds
2:55 AM 41.7 °F 41.2 °F 98% 29.97 in 7.0 mi Calm Calm - N/A   Mostly Cloudy
3:15 AM 41.7 °F 40.8 °F 97% 29.97 in 7.0 mi Calm Calm - N/A   Overcast
3:35 AM 42.6 °F 41.9 °F 97% 29.96 in 7.0 mi Calm Calm - N/A   Overcast
3:55 AM 43.0 °F 42.3 °F 97% 29.95 in 7.0 mi Calm Calm - N/A   Overcast
4:15 AM 43.9 °F 43.0 °F 97% 29.95 in 7.0 mi Calm Calm - N/A   Overcast
4:35 AM 44.6 °F 43.2 °F 95% 29.95 in 10.0 mi Calm Calm - N/A   Overcast
4:55 AM 44.6 °F 42.8 °F 93% 29.94 in 10.0 mi Calm Calm - N/A   Overcast
5:15 AM 44.2 °F 42.8 °F 95% 29.94 in 10.0 mi Calm Calm - N/A   Overcast
5:35 AM 44.6 °F 42.8 °F 93% 29.94 in 10.0 mi Calm Calm - N/A   Overcast
5:55 AM 45.0 °F 43.3 °F 94% 29.95 in 10.0 mi Calm Calm - N/A   Overcast
6:15 AM 45.0 °F 43.7 °F 95% 29.94 in 10.0 mi Calm Calm - N/A   Overcast
6:35 AM 45.1 °F 43.3 °F 93% 29.95 in 10.0 mi Calm Calm - N/A   Overcast
6:55 AM 45.3 °F 43.3 °F 93% 29.94 in 10.0 mi Calm Calm - N/A   Overcast
7:15 AM 45.0 °F 43.3 °F 94% 29.94 in 10.0 mi Calm Calm - N/A   Overcast
7:35 AM 45.3 °F 43.2 °F 92% 29.93 in 10.0 mi Calm Calm - N/A   Overcast
7:55 AM 45.7 °F 43.7 °F 93% 29.93 in 10.0 mi Calm Calm - N/A   Overcast
8:15 AM 46.2 °F 44.1 °F 92% 29.92 in 10.0 mi Calm Calm - N/A   Overcast
8:35 AM 46.6 °F 43.7 °F 90% 29.92 in 10.0 mi Calm Calm - N/A   Overcast
8:55 AM 47.3 °F 43.7 °F 87% 29.92 in 10.0 mi Calm Calm - N/A   Overcast
9:15 AM 48.2 °F 44.6 °F 87% 29.92 in 10.0 mi Calm Calm - N/A   Mostly Cloudy
9:35 AM 48.4 °F 44.6 °F 87% 29.93 in 10.0 mi Calm Calm - N/A   Scattered Clouds
9:55 AM 49.1 °F 43.9 °F 82% 29.92 in 10.0 mi Calm Calm - N/A   Mostly Cloudy
10:15 AM 50.4 °F 44.6 °F 81% 29.92 in 10.0 mi Calm Calm - N/A   Overcast
10:35 AM 51.4 °F 44.6 °F 77% 29.92 in 10.0 mi Calm Calm - N/A   Mostly Cloudy
10:55 AM 52.7 °F 44.8 °F 74% 29.92 in 10.0 mi Calm Calm - N/A   Mostly Cloudy
11:15 AM 55.2 °F 45.3 °F 69% 29.91 in 10.0 mi Calm Calm - N/A   Scattered Clouds
11:35 AM 56.3 °F 45.0 °F 66% 29.90 in 10.0 mi Calm Calm - N/A   Mostly Cloudy
11:55 AM 57.6 °F 44.2 °F 61% 29.88 in 10.0 mi Calm Calm - N/A   Scattered Clouds
12:15 PM 57.7 °F 44.8 °F 62% 29.87 in 10.0 mi West 4.6 mph - N/A   Mostly Cloudy
12:35 PM 58.1 °F 44.6 °F 61% 29.87 in 10.0 mi WNW 5.8 mph - N/A   Overcast
12:55 PM 58.3 °F 44.8 °F 61% 29.87 in 10.0 mi West 5.8 mph - N/A   Mostly Cloudy
1:15 PM 57.2 °F 44.8 °F 63% 29.86 in 10.0 mi WNW 3.5 mph - N/A   Unknown
1:35 PM 59.5 °F 43.0 °F 54% 29.86 in 10.0 mi Calm Calm - N/A   Unknown
1:55 PM 57.7 °F 43.5 °F 59% 29.85 in 10.0 mi WNW 4.6 mph - N/A   Unknown
2:15 PM 59.2 °F 44.1 °F 57% 29.85 in 10.0 mi WNW 3.5 mph - N/A   Unknown
2:35 PM 59.9 °F 43.7 °F 55% 29.84 in 10.0 mi West 6.9 mph - N/A   Unknown
2:55 PM 59.4 °F 43.2 °F 55% 29.82 in 10.0 mi North 3.5 mph - N/A   Unknown
3:15 PM 59.4 °F 42.8 °F 54% 29.82 in 10.0 mi WNW 3.5 mph - N/A   Unknown
3:35 PM 59.4 °F 42.8 °F 54% 29.82 in 10.0 mi Calm Calm - N/A   Unknown
3:55 PM 59.2 °F 42.8 °F 55% 29.82 in 10.0 mi Calm Calm - N/A   Unknown
4:15 PM 59.0 °F 42.4 °F 54% 29.83 in 10.0 mi Calm Calm - N/A   Unknown
4:35 PM 58.1 °F 42.4 °F 56% 29.84 in 10.0 mi Calm Calm - N/A   Unknown
4:55 PM 56.1 °F 43.2 °F 62% 29.84 in 10.0 mi WNW 4.6 mph - N/A   Unknown
5:15 PM 54.9 °F 43.2 °F 65% 29.85 in 10.0 mi WNW 3.5 mph - N/A   Unknown
5:35 PM 54.1 °F 43.2 °F 66% 29.85 in 10.0 mi NW 3.5 mph - N/A   Unknown
5:55 PM 53.4 °F 42.6 °F 67% 29.85 in 10.0 mi Calm Calm - N/A   Unknown
6:15 PM 51.1 °F 43.0 °F 74% 29.85 in 10.0 mi Calm Calm - N/A   Unknown
6:35 PM 52.0 °F 42.1 °F 69% 29.85 in 7.0 mi Calm Calm - N/A   Clear
6:55 PM 47.5 °F 42.3 °F 82% 29.86 in 7.0 mi Calm Calm - N/A   Clear
7:15 PM 48.2 °F 42.8 °F 82% 29.86 in 10.0 mi Calm Calm - N/A   Scattered Clouds
7:35 PM 47.8 °F 42.3 °F 81% 29.86 in 10.0 mi Calm Calm - N/A   Clear
7:55 PM 47.1 °F 41.7 °F 81% 29.86 in 10.0 mi Calm Calm - N/A   Scattered Clouds
8:15 PM 48.2 °F 42.1 °F 79% 29.86 in 10.0 mi Calm Calm - N/A   Scattered Clouds
8:35 PM 47.5 °F 41.7 °F 80% 29.87 in 10.0 mi Calm Calm - N/A   Mostly Cloudy
8:55 PM 45.5 °F 42.1 °F 88% 29.87 in 10.0 mi Calm Calm - N/A   Mostly Cloudy
9:15 PM 46.8 °F 42.8 °F 86% 29.87 in 10.0 mi Calm Calm - N/A   Mostly Cloudy
9:35 PM 46.2 °F 42.8 °F 88% 29.87 in 10.0 mi Calm Calm - N/A   Mostly Cloudy
9:55 PM 46.4 °F 42.8 °F 87% 29.87 in 10.0 mi Calm Calm - N/A   Mostly Cloudy
10:15 PM 46.6 °F 42.8 °F 87% 29.88 in 10.0 mi Calm Calm - N/A   Mostly Cloudy
10:35 PM 47.5 °F 43.7 °F 87% 29.88 in 10.0 mi Calm Calm - N/A   Mostly Cloudy
10:55 PM 46.9 °F 43.5 °F 88% 29.88 in 10.0 mi SW 3.5 mph - N/A   Mostly Cloudy
11:15 PM 47.7 °F 43.2 °F 84% 29.88 in 10.0 mi Calm Calm - N/A   Mostly Cloudy
11:35 PM 47.5 °F 43.3 °F 86% 29.89 in 10.0 mi Calm Calm - N/A   Mostly Cloudy
11:55 PM 47.5 °F 44.2 °F 89% 29.89 in 10.0 mi Calm Calm - N/A   Overcast